DW4839 Weather Reports


time (UTC)temp
F
wind
direction
speed
knots
gust
knots
rain 1hr
in
rain 24hr
in
rain mn
in
humidity
%
barometer
mb
20200531061624 49 202 3.5 0.0 0.00 0.00 0.38 96 1015.2
20200531060127 49 220 1.7 0.0 0.00 0.00 0.38 96 1015.2
20200531054658 49 199 2.6 0.0 0.00 0.00 0.38 96 1015.1
20200531053208 49 184 1.7 0.0 0.00 0.00 0.38 96 1015.0
20200531051609 49 240 2.6 0.0 0.00 0.00 0.38 96 1014.7
20200531050110 49 180 1.7 0.0 0.00 0.00 0.37 96 1014.6
20200531044651 49 244 1.7 0.0 0.00 0.00 0.37 96 1014.6
20200531043051 50 102 1.7 0.0 0.00 0.00 0.37 95 1014.4
20200531041646 50 245 1.7 0.0 0.00 0.00 0.36 96 1014.4
20200531040054 50 216 2.6 0.0 0.00 0.00 0.36 95 1014.3
20200531034534 50 176 2.6 0.0 0.00 0.00 0.36 96 1014.0
20200531033105 51 250 1.7 0.0 0.00 0.00 0.36 96 1014.0
20200531031528 51 170 0.9 0.0 0.00 0.00 0.36 96 1014.0
20200531030102 51 219 2.6 0.0 0.00 0.00 0.36 95 1014.0
20200531024521 51 277 2.6 0.0 0.00 0.00 0.36 95 1013.7
20200531023012 51 174 3.5 0.0 0.00 0.00 0.36 95 1013.7
20200531021509 51 186 2.6 0.0 0.00 0.00 0.36 95 1013.5
20200531020012 51 200 1.7 0.0 0.00 0.00 0.36 95 1013.3
20200531014508 51 169 1.7 0.0 0.00 0.00 0.36 95 1013.3
20200531013010 51 171 1.7 0.0 0.00 0.00 0.36 95 1013.1
20200531011520 51 11 0.0 0.0 0.00 0.00 0.36 95 1013.1
20200531010008 51 12 0.9 0.0 0.00 0.00 0.36 95 1013.1
20200531004620 51 12 0.9 0.0 0.00 0.00 0.36 94 1013.1
20200531003113 51 58 0.0 0.0 0.00 0.00 0.36 95 1012.9
20200531001755 51 83 0.0 0.0 0.00 0.00 0.36 95 1012.7
20200531000142 51 70 0.0 0.0 0.00 0.00 0.36 95 1012.8
20200530234708 51 79 0.0 0.0 0.00 0.00 0.36 95 1012.8
20200530233111 50 168 1.7 0.0 0.00 0.00 0.36 94 1013.1
20200530231620 51 5 2.6 0.0 0.00 0.00 0.35 91 1011.5
20200530230353 52 15 1.7 0.0 0.00 0.00 0.31 92 1012.9
20200530224600 52 348 2.6 0.0 0.00 0.00 0.23 92 1013.3
20200530223101 53 198 4.3 0.0 0.00 0.00 0.16 90 1013.0
20200530221533 53 196 5.2 0.0 0.00 0.00 0.10 87 1013.0
20200530220044 54 193 3.5 0.0 0.00 0.00 0.08 85 1012.2
20200530214609 55 217 3.5 0.0 0.00 0.00 0.07 82 1011.4
20200530213103 55 186 1.7 0.0 0.00 0.00 0.07 85 1011.0
20200530211543 56 198 0.9 0.0 0.00 0.00 0.06 77 1009.9
20200530210042 57 191 1.7 0.0 0.00 0.00 0.06 75 1009.7
20200530204525 57 220 1.7 0.0 0.00 0.00 0.06 73 1009.8
20200530203050 58 184 0.9 0.0 0.00 0.00 0.06 72 1009.5
20200530201509 57 5 0.9 0.0 0.00 0.00 0.06 77 1009.4
20200530200010 57 112 0.9 0.0 0.00 0.00 0.06 78 1009.4
20200530194530 58 209 1.7 0.0 0.00 0.00 0.06 74 1009.5
20200530193010 60 163 2.6 0.0 0.00 0.00 0.06 71 1009.3
20200530191508 59 193 1.7 0.0 0.00 0.00 0.06 76 1009.3
20200530190004 57 234 1.7 0.0 0.00 0.00 0.06 80 1009.3
20200530184610 58 230 0.9 0.0 0.00 0.00 0.06 82 1009.3
20200530183142 56 108 1.7 0.0 0.00 0.00 0.06 80 1009.0
20200530181546 56 30 0.9 0.0 0.00 0.00 0.06 80 1008.7
20200530180033 54 92 1.7 0.0 0.00 0.00 0.06 86 1008.5
20200530174532 54 21 0.9 0.0 0.00 0.00 0.06 86 1008.5
20200530173108 53 346 1.7 0.0 0.00 0.00 0.06 88 1008.2
20200530171544 54 342 1.7 0.0 0.00 0.00 0.06 86 1007.9
20200530170024 53 349 3.5 0.0 0.00 0.00 0.06 86 1007.8
20200530164531 53 355 4.3 0.0 0.00 0.00 0.06 86 1007.7
20200530163051 54 5 4.3 0.0 0.00 0.00 0.06 88 1007.6
20200530161514 53 40 6.1 0.0 0.00 0.00 0.06 87 1008.0
20200530160023 53 17 5.2 0.0 0.00 0.00 0.06 88 1008.0
20200530154636 53 288 2.6 0.0 0.00 0.00 0.06 92 1008.0
20200530153139 51 14 0.9 0.0 0.00 0.00 0.06 93 1008.4
20200530151634 50 34 2.6 0.0 0.00 0.00 0.06 94 1008.3
20200530150226 50 5 6.1 0.0 0.00 0.00 0.06 93 1007.8
20200530144645 50 21 3.5 0.0 0.00 0.00 0.06 93 1008.7
20200530143152 50 23 6.1 0.0 0.00 0.00 0.06 92 1008.5
20200530141631 50 57 4.3 0.0 0.00 0.00 0.06 91 1008.6
20200530140133 50 349 4.3 0.0 0.00 0.00 0.05 90 1007.1
20200530134541 51 274 0.9 0.0 0.00 0.00 0.04 88 1008.9
20200530133031 51 190 1.7 0.0 0.00 0.00 0.03 87 1010.1
20200530131540 51 230 1.7 0.0 0.00 0.00 0.03 84 1010.1
20200530130022 51 190 2.6 0.0 0.00 0.00 0.00 80 1010.5
20200530124521 51 20 0.9 0.0 0.00 0.00 0.00 80 1008.5
20200530123033 51 13 1.7 0.0 0.00 0.00 0.00 79 1008.1
20200530121549 52 14 2.6 0.0 0.00 0.00 0.00 78 1008.3
20200530120015 52 360 3.5 0.0 0.00 0.00 0.00 77 1008.2
20200530114634 52 12 4.3 0.0 0.00 0.00 0.00 77 1008.0
20200530113132 52 5 5.2 0.0 0.00 0.00 0.00 76 1008.0
20200530111707 53 360 3.5 0.0 0.00 0.00 0.00 76 1008.0
20200530110218 53 336 2.6 0.0 0.00 0.00 0.00 76 1008.0
20200530104627 53 360 4.3 0.0 0.00 0.00 0.00 74 1007.7
20200530103142 54 333 5.2 0.0 0.00 0.00 0.00 73 1007.5
20200530101724 54 13 4.3 0.0 0.00 0.00 0.00 73 1007.6
20200530100217 54 355 2.6 0.0 0.00 0.00 0.00 72 1007.9
20200530094552 54 338 2.6 0.0 0.00 0.00 0.00 71 1007.5
20200530093056 54 355 2.6 0.0 0.00 0.00 0.00 71 1007.3
20200530090026 55 14 3.5 0.0 0.00 0.00 0.00 69 1007.6
20200530084540 55 339 2.6 0.0 0.00 0.00 0.00 69 1007.7
20200530083021 56 344 2.6 0.0 0.00 0.00 0.00 68 1007.8
20200530081524 56 336 3.5 0.0 0.00 0.00 0.00 66 1007.9
20200530080037 56 344 2.6 0.0 0.00 0.00 0.00 66 1007.9
20200530074503 57 351 4.3 0.0 0.00 0.00 0.00 66 1008.0
20200530073219 57 12 3.5 0.0 0.00 0.00 0.00 65 1008.0
20200530071800 58 346 3.5 0.0 0.00 0.00 0.00 64 1008.3
20200530070203 58 360 4.3 0.0 0.00 0.00 0.00 65 1008.2
20200530064644 59 360 5.2 0.0 0.00 0.00 0.00 63 1008.2
20200530063222 60 360 5.2 0.0 0.00 0.00 0.00 63 1008.2